(66067) = 1998 RM19 = 2000 AY31

Discovered at Socorro on 1998-09-14 by LINEAR.

Orbit

Orbit type: Main Belt

Note: WebGL enabled browser required.

epoch2024-03-31.0
epoch JD2460400.5
perihelion date2022-05-09.82194
perihelion JD2459709.32194
argument of perihelion (°)72.31384
ascending node (°)351.62292
inclination (°)6.12453
eccentricity0.1501221
perihelion distance (AU)2.3390374
Tisserand w.r.t. Jupiter3.3
ΔV w.r.t. Earth (km/sec)9.8
semimajor axis (AU)2.7522041
mean anomaly (°)149.20138
mean daily motion (°/day)0.21586530
aphelion distance (AU)3.165
period (years)4.57
P-vector [x]0.43857071
P-vector [y]0.77881416
P-vector [z]0.44844647
Q-vector [x]-0.89856226
Q-vector [y]0.38864065
Q-vector [z]0.20382421
absolute magnitude15.11
phase slope0.15
uncertainty0
referenceMPEC 2024-F28
observations used1315
oppositions18
arc length (days)9006
first opposition used1998
last opposition used2023
residual rms (arc-secs)0.64
perturbers coarse indicatorM-v
perturbers precise indicator003Ek
first observation date used1998-08-17.0
last observation date used2023-04-14.0
computer nameMPCLINUX
JD of orbit computation2456937.296242
perihelion JD uncertainty (days)9.6572E-05
argument of perihelion uncertainty (°)3.6498E-05
ascending node uncertainty (°)2.7442E-05
inclination uncertainty (°)5.3631E-06
eccentricity uncertainty 3.2837E-08
perihelion distance uncertainty (AU)9.0524E-08
Minimum Orbit Intersection Distances (in AU)
for orbit epoch: 2460400.5, reference: E2024-GB3
Mercury2.03049
Venus1.62443
Earth1.36122
Mars0.81477
Jupiter2.1784
Saturn6.60228
Uranus15.5483
Neptune27.3017

Observations

1344 total observations over interval: 1998 08 17.35772 – 2023 04 14.201372
These data are available for download (format description).

Date (UT) J2000 RA J2000 Dec Magn Location Ref
1998 08 17.35772 22 55 04.86 -10 02 43.0 19.5   704 – Lincoln Laboratory ETS, New Mexico MPS 8465
1998 08 17.37881 22 55 03.93 -10 02 47.4 19.8   704 – Lincoln Laboratory ETS, New Mexico MPS 8465
1998 08 17.42089 22 55 02.09 -10 02 51.6 19.8   704 – Lincoln Laboratory ETS, New Mexico MPS 8465
1998 08 17.44183 22 55 00.86 -10 02 55.9 19.7   704 – Lincoln Laboratory ETS, New Mexico MPS 8465
1998 08 30.33947 22 44 02.01 -10 41 28.4 18.4 R 699 – Lowell Observatory-LONEOS MPS 51451
1998 08 30.36184 22 44 00.70 -10 41 32.5   699 – Lowell Observatory-LONEOS MPS 51451
1998 08 30.38419 22 43 59.40 -10 41 36.5   699 – Lowell Observatory-LONEOS MPS 51451
1998 09 14.14924 22 30 48.53 -11 21 00.3 18.8   704 – Lincoln Laboratory ETS, New Mexico MPS 2298
1998 09 14.17119 22 30 47.36 -11 21 04.6 19.3   704 – Lincoln Laboratory ETS, New Mexico MPS 2298
1998 09 14.19316 22 30 46.13 -11 21 08.6 19.3   704 – Lincoln Laboratory ETS, New Mexico MPS 2298
1998 09 14.21523 22 30 44.91 -11 21 10.4 19.1   704 – Lincoln Laboratory ETS, New Mexico MPS 2298
1998 09 14.23729 22 30 43.93 -11 21 13.0 19.1   704 – Lincoln Laboratory ETS, New Mexico MPS 2298
1998 09 18.25138 22 27 26.77 -11 29 08.0 19.0   704 – Lincoln Laboratory ETS, New Mexico MPS 2298
1998 09 18.26422 22 27 25.86 -11 29 07.7 19.2   704 – Lincoln Laboratory ETS, New Mexico MPS 2298
1998 09 18.27712 22 27 25.26 -11 29 07.7 19.2   704 – Lincoln Laboratory ETS, New Mexico MPS 2298
1998 09 18.30277 22 27 24.00 -11 29 11.9 19.3   704 – Lincoln Laboratory ETS, New Mexico MPS 2298
1998 10 20.84698 22 13 27.72 -11 21 09.0 20.6 V 910 – Caussols-ODAS MPS 2594
1998 10 20.88195 22 13 27.66 -11 21 04.1 21.1 V 910 – Caussols-ODAS MPS 2594
1998 10 20.90650 22 13 27.62 -11 21 00.7 20.8 V 910 – Caussols-ODAS MPS 2594
1998 10 21.87369 22 13 28.13 -11 18 39.1 20.6 V 910 – Caussols-ODAS MPS 2594
1998 10 21.89678 22 13 28.14 -11 18 35.5 20.5 V 910 – Caussols-ODAS MPS 2594
1998 10 21.93545 22 13 28.13 -11 18 29.8 20.6 V 910 – Caussols-ODAS MPS 2594
2000 01 03.30341 08 20 31.23 +28 19 23.8 18.1   704 – Lincoln Laboratory ETS, New Mexico MPS 9248
2000 01 03.31810 08 20 30.40 +28 19 26.1 18.7   704 – Lincoln Laboratory ETS, New Mexico MPS 9248
2000 01 03.33282 08 20 29.52 +28 19 28.0 18.3   704 – Lincoln Laboratory ETS, New Mexico MPS 9248
2000 01 03.34755 08 20 28.71 +28 19 30.3 18.2   704 – Lincoln Laboratory ETS, New Mexico MPS 9248
2000 01 03.36239 08 20 27.87 +28 19 32.6 18.2   704 – Lincoln Laboratory ETS, New Mexico MPS 9248
2000 01 04.30260 08 19 36.30 +28 21 58.6 18.3   704 – Lincoln Laboratory ETS, New Mexico MPS 9248
2000 01 04.31718 08 19 35.44 +28 22 01.2 18.3   704 – Lincoln Laboratory ETS, New Mexico MPS 9248
2000 01 04.33172 08 19 34.63 +28 22 03.4 18.7   704 – Lincoln Laboratory ETS, New Mexico MPS 9248
2000 01 04.34642 08 19 33.79 +28 22 06.0 18.9   704 – Lincoln Laboratory ETS, New Mexico MPS 9248
2000 01 04.36102 08 19 32.95 +28 22 07.5 18.5   704 – Lincoln Laboratory ETS, New Mexico MPS 9248
2000 01 08.29957 08 15 45.32 +28 31 39.7 18.9   704 – Lincoln Laboratory ETS, New Mexico MPS 9248
2000 01 08.31471 08 15 44.45 +28 31 42.2 19.0   704 – Lincoln Laboratory ETS, New Mexico MPS 9248
2000 01 08.32984 08 15 43.55 +28 31 44.9 18.9   704 – Lincoln Laboratory ETS, New Mexico MPS 9248
2000 01 08.34510 08 15 42.57 +28 31 47.4 18.8   704 – Lincoln Laboratory ETS, New Mexico MPS 9248
2000 01 08.36015 08 15 41.60 +28 31 49.0 18.7   704 – Lincoln Laboratory ETS, New Mexico MPS 9248
2000 01 30.24104 07 52 55.63 +28 54 01.6 18.0   704 – Lincoln Laboratory ETS, New Mexico MPS 9865
2000 01 30.25593 07 52 54.74 +28 54 01.5 18.5   704 – Lincoln Laboratory ETS, New Mexico MPS 9865
2000 01 30.27082 07 52 53.82 +28 54 01.3 19.2   704 – Lincoln Laboratory ETS, New Mexico MPS 9865
2000 01 30.28577 07 52 52.96 +28 54 01.1 19.1   704 – Lincoln Laboratory ETS, New Mexico MPS 9865
2000 02 11.17251 07 42 53.82 +28 39 26.3 18.9   704 – Lincoln Laboratory ETS, New Mexico MPS 9865
2000 02 11.18675 07 42 53.15 +28 39 24.5 19.4   704 – Lincoln Laboratory ETS, New Mexico MPS 9865
2000 02 11.20107 07 42 52.60 +28 39 21.9 19.7   704 – Lincoln Laboratory ETS, New Mexico MPS 9865
2000 02 11.21532 07 42 51.95 +28 39 20.2 19.3   704 – Lincoln Laboratory ETS, New Mexico MPS 9865
2000 02 11.22990 07 42 51.39 +28 39 18.8 19.6   704 – Lincoln Laboratory ETS, New Mexico MPS 9865
2001 03 29.42183 14 15 16.59 -19 05 42.4 20.6   608 – Haleakala-AMOS MPS 27435
2001 03 29.43281 14 15 16.15 -19 05 41.7 20.8   608 – Haleakala-AMOS MPS 27435
2001 03 29.44297 14 15 15.71 -19 05 40.6 20.5   608 – Haleakala-AMOS MPS 27435
2002 06 13.33856 19 37 20.31 -29 57 57.2 19.6   644 – Palomar Mountain/NEAT MPS 58686
2002 06 13.35301 19 37 19.70 -29 57 59.4 19.4   644 – Palomar Mountain/NEAT MPS 58686
2002 06 13.36453 19 37 19.25 -29 58 01.7 19.8   644 – Palomar Mountain/NEAT MPS 58686
2003 07 17.00576 01 48 47.30 +12 50 25.1 19.1 R 097 – Wise Observatory, Mitzpeh Ramon MPS 82258
2003 07 17.03019 01 48 48.92 +12 50 38.2 20.5 R 097 – Wise Observatory, Mitzpeh Ramon MPS 82258
2003 07 17.05380 01 48 50.46 +12 50 50.8 20.9 R 097 – Wise Observatory, Mitzpeh Ramon MPS 82258
2003 08 28.32658 02 22 15.33 +17 49 01.4 18.9   704 – Lincoln Laboratory ETS, New Mexico MPS 83171
2003 08 28.34039 02 22 15.50 +17 49 07.3 19.5   704 – Lincoln Laboratory ETS, New Mexico MPS 83171
2003 08 28.35262 02 22 15.84 +17 49 10.8 19.1   704 – Lincoln Laboratory ETS, New Mexico MPS 83171
2003 08 28.36505 02 22 16.16 +17 49 13.9 19.8   704 – Lincoln Laboratory ETS, New Mexico MPS 83171
2003 08 28.37849 02 22 16.41 +17 49 19.1 19.5   704 – Lincoln Laboratory ETS, New Mexico MPS 83171
2003 09 05.32812 02 24 25.36 +18 29 13.0 19.1   704 – Lincoln Laboratory ETS, New Mexico MPS 83893
2003 09 05.34197 02 24 25.56 +18 29 16.8 19.5   704 – Lincoln Laboratory ETS, New Mexico MPS 83893
2003 09 05.35633 02 24 25.65 +18 29 19.8 19.9   704 – Lincoln Laboratory ETS, New Mexico MPS 83893
2003 09 05.37038 02 24 25.74 +18 29 24.7 19.8   704 – Lincoln Laboratory ETS, New Mexico MPS 83893
2003 09 20.07157 02 23 46.29 +19 24 55.7 18.4 R 599 – Campo Imperatore-CINEOS MPS 85929
2003 09 20.08206 02 23 46.11 +19 24 57.4 18.5 R 599 – Campo Imperatore-CINEOS MPS 85929
2003 09 20.09250 02 23 45.93 +19 24 59.2 18.4 R 599 – Campo Imperatore-CINEOS MPS 85929
2003 09 20.10294 02 23 45.76 +19 25 01.0 18.6 R 599 – Campo Imperatore-CINEOS MPS 85929
2003 09 22.30437 02 23 07.35 +19 30 59.3 18.8   704 – Lincoln Laboratory ETS, New Mexico MPS 85929
2003 09 22.31682 02 23 07.09 +19 31 04.2 19.1   704 – Lincoln Laboratory ETS, New Mexico MPS 85929
2003 09 22.32953 02 23 06.72 +19 31 05.8 19.4   704 – Lincoln Laboratory ETS, New Mexico MPS 85929
2003 09 22.34203 02 23 06.53 +19 31 06.9 19.6   704 – Lincoln Laboratory ETS, New Mexico MPS 85929
2003 09 22.35471 02 23 06.20 +19 31 07.8 19.8   704 – Lincoln Laboratory ETS, New Mexico MPS 85929
2003 09 27.30194 02 21 07.82 +19 41 59.0 18.9   704 – Lincoln Laboratory ETS, New Mexico MPS 86807
2003 09 27.31571 02 21 07.42 +19 42 00.9 19.1   704 – Lincoln Laboratory ETS, New Mexico MPS 86807
2003 09 27.32860 02 21 06.98 +19 42 02.2 19.1   704 – Lincoln Laboratory ETS, New Mexico MPS 86807
2003 09 27.34192 02 21 06.61 +19 42 04.2 19.1   704 – Lincoln Laboratory ETS, New Mexico MPS 86807
2003 09 27.35470 02 21 06.17 +19 42 05.4 19.1   704 – Lincoln Laboratory ETS, New Mexico MPS 86807
2003 10 15.37550 02 08 35.89 +19 50 12.6 17.9 R 699 – Lowell Observatory-LONEOS MPS 89134
2003 10 15.39293 02 08 34.96 +19 50 11.7   699 – Lowell Observatory-LONEOS MPS 89134
2003 10 15.41040 02 08 33.99 +19 50 10.9   699 – Lowell Observatory-LONEOS MPS 89134
2003 10 15.42775 02 08 33.01 +19 50 09.3   699 – Lowell Observatory-LONEOS MPS 89134
2003 10 20.41376 02 04 01.61 +19 43 40.2 17.8   644 – Palomar Mountain/NEAT MPS 89134
2003 10 20.43477 02 04 00.37 +19 43 37.8 17.7   644 – Palomar Mountain/NEAT MPS 89134
2003 10 20.45814 02 03 59.04 +19 43 35.5 18.4   644 – Palomar Mountain/NEAT MPS 89134
2003 10 22.26296 02 02 17.51 +19 40 22.2 18.3   704 – Lincoln Laboratory ETS, New Mexico MPS 89134
2003 10 22.27533 02 02 16.74 +19 40 21.2 18.6   704 – Lincoln Laboratory ETS, New Mexico MPS 89134
